EW4785 Weather Reports


Display with metric or nautical units.
time (UTC)temp
F
wind
direction
speed
MPH
gust
MPH
rain 1hr
in
rain 24hr
in
rain mn
in
humidity
%
barometer
mb
20260905101539 70 57 0.0 0.0 0.00 0.25 0.02 97 1011.5
20260905100033 71 57 0.0 0.0 0.00 0.25 0.02 98 1011.3
20260905094533 71 57 0.0 0.0 0.00 0.25 0.02 98 1011.3
20260905093031 71 57 0.0 0.0 0.00 0.25 0.02 98 1011.3
20260905091632 71 57 0.0 0.0 0.00 0.25 0.02 98 1011.5
20260905090035 71 57 0.0 0.0 0.00 0.25 0.02 97 1011.5
20260905084554 71 57 0.0 0.0 0.00 0.25 0.02 98 1011.5
20260905083024 72 57 0.0 0.0 0.00 0.25 0.02 98 1011.7
20260905081521 71 57 0.0 0.0 0.00 0.25 0.02 98 1011.8
20260905080020 71 57 0.0 0.0 0.00 0.25 0.02 98 1012.1
20260905074518 71 57 0.0 0.0 0.00 0.25 0.02 98 1012.4
20260905073018 71 57 0.0 0.0 0.00 0.25 0.02 97 1012.4
20260905071517 71 57 0.0 0.0 0.00 0.25 0.02 97 1012.6
20260905070015 71 57 0.0 0.0 0.00 0.25 0.02 97 1012.6
20260905064514 71 57 0.0 0.0 0.01 0.25 0.02 97 1012.7
20260905063014 71 57 0.0 0.0 0.02 0.25 0.02 97 1012.5
20260905061513 71 57 0.0 0.0 0.02 0.25 0.02 97 1013.0
20260905060009 71 57 0.0 0.0 0.02 0.25 0.02 97 1013.2
20260905054509 71 57 0.0 1.0 0.01 0.24 0.01 97 1014.0
20260905053004 72 228 0.0 0.0 0.00 0.23 0.00 97 1014.2
20260905051600 71 228 0.0 0.0 0.00 0.23 0.00 97 1014.2
20260905050057 71 228 0.0 0.0 0.00 0.23 0.00 97 1014.2
20260905044553 71 228 0.0 0.0 0.00 0.23 0.00 97 1014.2
20260905043049 71 228 0.0 0.0 0.00 0.23 0.00 97 1014.5
20260905041548 71 228 0.0 0.0 0.00 0.23 0.00 97 1014.4
20260905040046 71 228 0.0 0.0 0.00 0.23 0.00 96 1014.3
20260905034549 71 228 0.0 0.0 0.00 0.23 0.23 96 1014.4
20260905033043 71 228 0.0 0.0 0.00 0.23 0.23 96 1014.5
20260905031544 71 228 0.0 0.0 0.00 0.23 0.23 96 1014.5
20260905030042 72 228 0.0 0.0 0.00 0.23 0.23 96 1014.3
20260905024601 72 228 0.0 0.0 0.00 0.23 0.23 96 1014.2
20260905023043 72 228 0.0 0.0 0.00 0.23 0.23 96 1014.0
20260905021542 72 228 0.0 0.0 0.00 0.23 0.23 96 1013.9
20260905020047 72 228 0.0 0.0 0.00 0.23 0.23 96 1013.7
20260905014539 72 228 0.0 0.0 0.00 0.23 0.23 96 1013.6
20260905013037 72 228 0.0 0.0 0.00 0.23 0.23 95 1013.3
20260905011544 72 228 0.0 1.0 0.00 0.23 0.23 95 1012.6
20260905010036 72 228 0.0 0.0 0.00 0.23 0.23 94 1012.4
20260905004542 72 228 0.0 0.0 0.00 0.23 0.23 94 1012.3
20260905003034 73 228 0.0 1.0 0.00 0.23 0.23 93 1012.5
20260905001534 73 228 0.0 3.0 0.00 0.23 0.23 92 1012.7
20260905000033 73 228 0.0 3.0 0.02 0.23 0.23 92 1013.1
20260904234542 73 228 0.0 2.0 0.15 0.23 0.23 92 1013.6
20260904233050 73 110 0.0 3.0 0.23 0.23 0.23 91 1014.5
20260904231531 74 178 0.0 6.0 0.23 0.23 0.23 87 1014.2
20260904230033 74 265 0.0 14.0 0.21 0.21 0.21 86 1013.9
20260904224539 78 31 4.0 15.0 0.07 0.07 0.07 84 1014.0
20260904223036 85 319 2.0 12.0 0.00 0.00 0.00 66 1013.6
20260904221527 90 309 0.0 0.0 0.00 0.00 0.00 73 1012.9
20260904220027 92 309 0.0 1.0 0.00 0.00 0.00 68 1012.7
20260904214629 93 246 0.0 2.0 0.00 0.00 0.00 60 1012.2
20260904213027 95 246 0.0 5.0 0.00 0.00 0.00 54 1012.3
20260904211527 95 162 0.0 5.0 0.00 0.00 0.00 55 1012.6
20260904210025 95 190 1.0 5.0 0.00 0.00 0.00 58 1012.6
20260904204524 94 207 0.0 2.0 0.00 0.00 0.00 62 1012.7
20260904203023 93 24 0.0 3.0 0.00 0.00 0.00 59 1012.3
20260904201523 95 178 0.0 4.0 0.00 0.00 0.00 59 1012.2
20260904200028 95 191 0.0 6.0 0.00 0.00 0.00 59 1012.7
20260904194517 95 318 1.0 4.0 0.00 0.00 0.00 55 1013.2
20260904193017 93 180 0.0 4.0 0.00 0.00 0.00 58 1013.3
20260904191519 95 134 1.0 4.0 0.00 0.00 0.00 53 1013.5
20260904190012 95 125 1.0 5.0 0.00 0.00 0.00 51 1014.0
20260904184518 95 231 1.0 6.0 0.00 0.00 0.00 61 1014.1
20260904183005 94 183 1.0 6.0 0.00 0.00 0.00 62 1014.4
20260904181502 94 141 2.0 4.0 0.00 0.00 0.00 61 1014.5
20260904180108 93 285 1.0 5.0 0.00 0.00 0.00 63 1014.6
20260904174559 93 279 2.0 5.0 0.00 0.00 0.00 63 1014.8
20260904173053 93 200 1.0 6.0 0.00 0.00 0.00 66 1014.9
20260904171555 92 236 1.0 6.0 0.00 0.00 0.00 68 1014.9
20260904170045 92 185 1.0 5.0 0.00 0.00 0.00 69 1015.1
20260904164544 91 252 1.0 8.0 0.00 0.00 0.00 68 1015.2
20260904163043 90 157 0.0 4.0 0.00 0.00 0.00 71 1015.5
20260904161540 90 169 1.0 4.0 0.00 0.00 0.00 71 1015.6
20260904160041 90 225 1.0 4.0 0.00 0.00 0.00 73 1015.7
20260904154535 89 95 1.0 5.0 0.00 0.00 0.00 72 1015.8
20260904153039 88 113 1.0 5.0 0.00 0.00 0.00 75 1015.8
20260904151530 88 254 1.0 7.0 0.00 0.00 0.00 74 1015.8
20260904150029 87 252 0.0 5.0 0.00 0.00 0.00 75 1015.8
20260904144530 86 154 1.0 7.0 0.00 0.00 0.00 77 1015.8
20260904143023 85 256 1.0 4.0 0.00 0.00 0.00 77 1015.9
20260904141521 84 276 2.0 6.0 0.00 0.00 0.00 77 1015.8
20260904140017 83 219 1.0 4.0 0.00 0.00 0.00 80 1016.0
20260904134513 82 272 2.0 7.0 0.00 0.00 0.00 81 1016.0
20260904133009 81 227 1.0 6.0 0.00 0.00 0.00 83 1016.1
20260904131506 79 310 0.0 4.0 0.00 0.00 0.00 86 1016.1
20260904130004 78 157 0.0 3.0 0.00 0.00 0.00 89 1016.1
20260904124503 76 168 0.0 3.0 0.00 0.00 0.00 91 1016.4
20260904123002 75 170 0.0 3.0 0.00 0.00 0.00 93 1016.3
20260904121503 74 163 0.0 3.0 0.00 0.00 0.00 94 1016.3
20260904120106 73 179 0.0 1.0 0.00 0.00 0.00 95 1016.1
20260904114601 73 179 0.0 2.0 0.00 0.00 0.00 95 1016.0
20260904113100 73 179 0.0 1.0 0.00 0.00 0.00 95 1016.1
20260904111559 73 179 0.0 1.0 0.00 0.00 0.00 94 1015.9
20260904110059 73 179 0.0 2.0 0.00 0.00 0.00 94 1015.9
20260904104605 73 179 0.0 1.0 0.00 0.00 0.00 94 1015.7
20260904103105 73 179 0.0 2.0 0.00 0.00 0.00 94 1015.6